Terminal Aerodrome Forecast
Issued by NWS

Home | Current Version | Previous Version | Text Only | Print | Product List | Glossary On
Versions: 1 2 3 4 5 6 7 8 9 10 11 12 13
000
FTUS42 KMLB 292320
TAFFPR
TAF
KFPR 292320Z 3000/3024 08011KT P6SM SCT028
     FM300100 08006KT P6SM VCSH SCT035
     FM301400 10011KT P6SM SCT025
      TEMPO 3014/3016 BKN025=

USA.gov is the U.S. government's official web portal to all federal, state and local government web resources and services.